This demonstration page uses our WeatherBlox Daily Observations layout. Learn more.

Left ArrowRight Arrow

Hourly Observations for June 11, 2017

Temp ( °F °C ) Dew Point ( °F °C ) Humidity (%) Winds ( mph kmh ) Pressure ( in mb ) Visibility ( mi km ) Precip ( " mm )
12:59 am 00:59 Clear 76 24.4 65 18.3 69 69 SW 13 20 30.14 1021 10 16 0.00 0.00
1:59 am 01:59 Mostly Clear 75 23.9 65 18.3 71 71 SSW 13 20 30.14 1021 10 16 0.00 0.00
2:59 am 02:59 Mostly Clear 74 23.3 63 17.2 69 69 SW 10 17 30.13 1020 10 16 0.00 0.00
3:59 am 03:59 Partly Cloudy 73 22.8 62 16.7 69 69 SW 9 15 30.12 1020 10 16 0.00 0.00
4:59 am 04:59 Mostly Clear 72 22.2 62 16.7 71 71 SW 7 11 30.13 1020 10 16 0.00 0.00
5:59 am 05:59 Partly Cloudy 72 22.2 61 16.1 68 68 WSW 8 13 30.15 1021 10 16 0.00 0.00
6:59 am 06:59 Mostly Sunny 73 22.8 62 16.7 69 69 W 8 13 30.17 1022 10 16 0.00 0.00
7:59 am 07:59 Mostly Sunny 76 24.4 64 17.8 67 67 W 8 13 30.19 1022 10 16 0.00 0.00
8:59 am 08:59 Mostly Sunny 78 25.6 66 18.9 67 67 W 6 9 30.19 1023 10 16 0.00 0.00
9:59 am 09:59 Mostly Sunny 81 27.2 67 19.4 62 62 W 7 11 30.19 1023 9 14 0.00 0.00
10:59 am 10:59 Mostly Sunny 86 30 66 18.9 51 51 W 7 11 30.19 1022 9 14 0.00 0.00
11:59 am 11:59 Mostly Sunny 88 31.1 66 18.9 48 48 VRB 5 7 30.19 1022 9 14 0.00 0.00
12:59 pm 12:59 Partly Cloudy 90 32.2 62 16.7 39 39 W 7 11 30.18 1022 10 16 0.00 0.00
1:59 pm 13:59 Partly Cloudy 91 32.8 61 16.1 37 37 W 9 15 30.16 1021 10 16 0.00 0.00
2:59 pm 14:59 Partly Cloudy 92 33.3 62 16.7 37 37 WSW 12 19 30.14 1021 10 16 0.00 0.00
3:59 pm 15:59 Partly Cloudy 91 32.8 61 16.1 37 37 SSW 10 17 30.13 1020 10 16 0.00 0.00
4:59 pm 16:59 Partly Cloudy 90 32.2 61 16.1 38 38 SW 9 15 30.12 1020 10 16 0.00 0.00
5:59 pm 17:59 Partly Cloudy 90 32.2 63 17.2 41 41 SW 10 17 30.11 1020 10 16 0.00 0.00
6:59 pm 18:59 Mostly Sunny 89 31.7 62 16.7 41 41 WSW 10 17 30.11 1020 10 16 0.00 0.00
7:59 pm 19:59 Mostly Sunny 86 30 64 17.8 48 48 SW 7 11 30.11 1020 9 14 0.00 0.00
8:59 pm 20:59 Mostly Clear 83 28.3 65 18.3 55 55 SSW 6 9 30.12 1020 10 16 0.00 0.00
9:59 pm 21:59 Clear 82 27.8 66 18.9 58 58 S 7 11 30.14 1021 10 16 0.00 0.00
10:59 pm 22:59 Clear 80 26.7 68 20 67 67 SSW 9 15 30.14 1021 10 16 0.00 0.00
11:59 pm 23:59 Clear 79 26.1 68 20 69 69 SSW 9 15 30.14 1021 10 16 0.00 0.00

Powered by AerisWeather